Location: Burbank
(38.7788°N, 114.0429°W)
Time: 14:12:19
(UTC+00:00)

Vanguard 2 Rocket - Pass Details

Date: 16 May 2026
Orbit: 553 x 3286 km, 32.9° (Epoch: 6 June)

Event Time Altitude Azimuth Distance (km) Brightness Sun altitude
Rises 02:25:52 0° 278° (W) 7,264 13.4 2.0°
Reaches altitude 10° 02:34:07 10° 260° (W) 6,121 12.2 0.5°
Maximum altitude 02:42:58 15° 232° (SW) 5,294 11.2 -1.0°
Drops below altitude 10° 02:50:45 10° 202° (SSW) 5,215 10.7 -2.4°
Sets 02:56:50 0° 182° (S) 5,679 10.7 -3.4°
